Time,TemperatureF,DewpointF,PressureIn,WindDirection,WindDirectionDegrees,WindSpeedMPH,WindSpeedGustMPH,Humidity,HourlyPrecipIn,Conditions,Clouds,dailyrainin,SoftwareType,DateUTC
2013-10-24 00:01:00,35.4,33.0,28.95,SW,225,2.0,6.0,94,0.00,,,0.00,Rainwise IP-100,2013-10-24 04:01:00,
2013-10-24 00:06:00,35.7,35.0,28.95,SW,225,2.0,6.0,94,0.00,,,0.00,Rainwise IP-100,2013-10-24 04:06:00,
2013-10-24 00:11:00,35.7,35.0,28.95,SW,225,3.0,5.0,94,0.00,,,0.00,Rainwise IP-100,2013-10-24 04:11:00,
2013-10-24 00:16:00,35.8,35.0,28.95,SW,225,1.0,5.0,94,0.00,,,0.00,Rainwise IP-100,2013-10-24 04:16:00,
2013-10-24 00:21:00,35.7,35.0,28.95,SW,225,2.0,5.0,95,0.00,,,0.00,Rainwise IP-100,2013-10-24 04:21:00,
2013-10-24 00:26:00,35.7,35.0,28.94,SW,225,2.0,4.0,95,0.00,,,0.00,Rainwise IP-100,2013-10-24 04:26:00,
2013-10-24 00:31:00,35.7,35.0,28.94,SW,225,4.0,5.0,95,0.00,,,0.00,Rainwise IP-100,2013-10-24 04:31:00,
2013-10-24 00:36:00,35.7,35.0,28.94,SW,225,4.0,4.0,95,0.00,,,0.00,Rainwise IP-100,2013-10-24 04:36:00,
2013-10-24 00:41:00,35.8,35.0,28.94,SW,225,2.0,6.0,95,0.00,,,0.00,Rainwise IP-100,2013-10-24 04:41:00,
2013-10-24 00:46:00,35.9,35.0,28.94,SW,225,5.0,5.0,94,0.00,,,0.00,Rainwise IP-100,2013-10-24 04:46:00,
2013-10-24 00:51:00,35.9,35.0,28.94,SW,225,2.0,7.0,94,0.00,,,0.00,Rainwise IP-100,2013-10-24 04:51:00,
2013-10-24 00:56:00,35.9,35.0,28.94,WSW,247,3.0,6.0,93,0.00,,,0.00,Rainwise IP-100,2013-10-24 04:56:00,
2013-10-24 01:01:00,35.9,35.0,28.94,SW,225,3.0,5.0,93,0.00,,,0.00,Rainwise IP-100,2013-10-24 05:01:00,
2013-10-24 01:06:00,35.9,35.0,28.94,SSW,202,2.0,4.0,93,0.00,,,0.00,Rainwise IP-100,2013-10-24 05:06:00,
2013-10-24 01:11:00,35.9,35.0,28.94,SW,225,2.0,6.0,93,0.00,,,0.00,Rainwise IP-100,2013-10-24 05:11:00,
2013-10-24 01:16:00,35.7,35.0,28.94,SW,225,2.0,6.0,93,0.00,,,0.00,Rainwise IP-100,2013-10-24 05:16:00,
2013-10-24 01:21:00,35.6,35.0,28.94,SSW,202,2.0,6.0,93,0.00,,,0.00,Rainwise IP-100,2013-10-24 05:21:00,
2013-10-24 01:26:00,35.4,33.0,28.95,SW,225,3.0,6.0,93,0.00,,,0.00,Rainwise IP-100,2013-10-24 05:26:00,
2013-10-24 01:31:00,35.2,33.0,28.95,SW,225,1.0,5.0,93,0.00,,,0.00,Rainwise IP-100,2013-10-24 05:31:00,
2013-10-24 01:36:00,35.2,33.0,28.94,SW,225,1.0,4.0,93,0.00,,,0.00,Rainwise IP-100,2013-10-24 05:36:00,
2013-10-24 01:41:00,35.1,33.0,28.95,SW,225,4.0,4.0,93,0.00,,,0.00,Rainwise IP-100,2013-10-24 05:41:00,
2013-10-24 01:46:00,35.2,33.0,28.95,SSW,202,2.0,4.0,94,0.00,,,0.00,Rainwise IP-100,2013-10-24 05:46:00,
2013-10-24 01:51:00,35.2,33.0,28.95,SW,225,2.0,4.0,94,0.00,,,0.00,Rainwise IP-100,2013-10-24 05:51:00,
2013-10-24 01:56:00,35.1,33.0,28.94,SW,225,2.0,4.0,94,0.00,,,0.00,Rainwise IP-100,2013-10-24 05:56:00,
2013-10-24 02:01:00,34.9,33.0,28.95,WSW,247,1.0,3.0,94,0.00,,,0.00,Rainwise IP-100,2013-10-24 06:01:00,
2013-10-24 02:06:00,34.8,33.0,28.94,SW,225,2.0,3.0,94,0.00,,,0.00,Rainwise IP-100,2013-10-24 06:06:00,
2013-10-24 02:11:00,34.7,33.0,28.94,SW,225,1.0,3.0,93,0.00,,,0.00,Rainwise IP-100,2013-10-24 06:11:00,
2013-10-24 02:16:00,34.7,32.0,28.94,SSW,202,1.0,2.0,92,0.00,,,0.00,Rainwise IP-100,2013-10-24 06:16:00,
2013-10-24 02:21:00,35.3,32.0,28.94,WSW,247,4.0,7.0,92,0.00,,,0.00,Rainwise IP-100,2013-10-24 06:21:00,
2013-10-24 02:26:00,35.6,33.0,28.94,SW,225,2.0,6.0,90,0.00,,,0.00,Rainwise IP-100,2013-10-24 06:26:00,
2013-10-24 02:31:00,35.7,33.0,28.95,SW,225,1.0,7.0,89,0.00,,,0.00,Rainwise IP-100,2013-10-24 06:31:00,
2013-10-24 02:36:00,35.7,33.0,28.95,SSW,202,2.0,6.0,89,0.00,,,0.00,Rainwise IP-100,2013-10-24 06:36:00,
2013-10-24 02:41:00,35.6,32.0,28.94,SW,225,3.0,6.0,88,0.00,,,0.00,Rainwise IP-100,2013-10-24 06:41:00,
2013-10-24 02:46:00,35.5,33.0,28.94,SW,225,2.0,4.0,89,0.00,,,0.00,Rainwise IP-100,2013-10-24 06:46:00,
2013-10-24 02:51:00,35.3,32.0,28.94,SW,225,2.0,6.0,89,0.00,,,0.00,Rainwise IP-100,2013-10-24 06:51:00,
2013-10-24 02:56:00,34.9,32.0,28.94,SW,225,0.0,3.0,89,0.00,,,0.00,Rainwise IP-100,2013-10-24 06:56:00,
2013-10-24 03:01:00,34.4,32.0,28.94,SW,225,1.0,2.0,89,0.00,,,0.00,Rainwise IP-100,2013-10-24 07:01:00,
2013-10-24 03:06:00,33.9,32.0,28.94,SW,225,1.0,2.0,91,0.00,,,0.00,Rainwise IP-100,2013-10-24 07:06:00,
2013-10-24 03:11:00,33.7,32.0,28.94,SW,225,2.0,2.0,92,0.00,,,0.00,Rainwise IP-100,2013-10-24 07:11:00,
2013-10-24 03:16:00,33.4,32.0,28.94,SW,225,1.0,2.0,93,0.00,,,0.00,Rainwise IP-100,2013-10-24 07:16:00,
2013-10-24 03:21:00,32.9,32.0,28.93,South,180,2.0,3.0,94,0.00,,,0.00,Rainwise IP-100,2013-10-24 07:21:00,
2013-10-24 03:26:00,32.9,32.0,28.94,SSE,157,2.0,2.0,95,0.00,,,0.00,Rainwise IP-100,2013-10-24 07:26:00,
2013-10-24 03:31:00,33.3,32.0,28.94,SSW,202,2.0,3.0,95,0.00,,,0.00,Rainwise IP-100,2013-10-24 07:31:00,
2013-10-24 03:36:00,33.3,32.0,28.94,South,180,1.0,4.0,95,0.00,,,0.00,Rainwise IP-100,2013-10-24 07:36:00,
2013-10-24 03:41:00,34.0,33.0,28.94,SW,225,2.0,6.0,95,0.00,,,0.00,Rainwise IP-100,2013-10-24 07:41:00,
2013-10-24 03:46:00,34.1,33.0,28.94,SSW,202,4.0,6.0,94,0.00,,,0.00,Rainwise IP-100,2013-10-24 07:46:00,
2013-10-24 03:51:00,34.3,33.0,28.94,SW,225,2.0,6.0,93,0.00,,,0.00,Rainwise IP-100,2013-10-24 07:51:00,
2013-10-24 03:56:00,34.8,32.0,28.94,SSW,202,2.0,6.0,92,0.00,,,0.00,Rainwise IP-100,2013-10-24 07:56:00,
2013-10-24 04:01:00,35.1,32.0,28.94,South,180,3.0,6.0,91,0.00,,,0.00,Rainwise IP-100,2013-10-24 08:01:00,
2013-10-24 04:06:00,35.1,32.0,28.94,SSW,202,4.0,5.0,90,0.00,,,0.00,Rainwise IP-100,2013-10-24 08:06:00,
2013-10-24 04:11:00,34.9,32.0,28.94,SW,225,4.0,7.0,91,0.00,,,0.00,Rainwise IP-100,2013-10-24 08:11:00,
2013-10-24 04:16:00,34.8,32.0,28.94,SW,225,1.0,7.0,91,0.00,,,0.00,Rainwise IP-100,2013-10-24 08:16:00,
2013-10-24 04:21:00,34.8,32.0,28.94,SW,225,4.0,9.0,92,0.00,,,0.00,Rainwise IP-100,2013-10-24 08:21:00,
2013-10-24 04:26:00,34.9,32.0,28.94,SSW,202,4.0,7.0,92,0.00,,,0.00,Rainwise IP-100,2013-10-24 08:26:00,
2013-10-24 04:31:00,35.1,32.0,28.94,South,180,5.0,9.0,92,0.00,,,0.00,Rainwise IP-100,2013-10-24 08:31:00,
2013-10-24 04:36:00,35.2,33.0,28.94,SW,225,2.0,7.0,93,0.00,,,0.00,Rainwise IP-100,2013-10-24 08:36:00,
2013-10-24 04:41:00,35.4,33.0,28.94,SW,225,6.0,9.0,93,0.00,,,0.00,Rainwise IP-100,2013-10-24 08:41:00,
2013-10-24 04:46:00,35.3,33.0,28.94,SW,225,2.0,8.0,93,0.00,,,0.00,Rainwise IP-100,2013-10-24 08:46:00,
2013-10-24 04:51:00,35.2,33.0,28.95,SSW,202,4.0,9.0,93,0.00,,,0.00,Rainwise IP-100,2013-10-24 08:51:00,
2013-10-24 04:56:00,35.3,33.0,28.95,SSW,202,3.0,9.0,93,0.00,,,0.00,Rainwise IP-100,2013-10-24 08:56:00,
2013-10-24 05:01:00,35.1,33.0,28.95,SSW,202,2.0,6.0,94,0.00,,,0.00,Rainwise IP-100,2013-10-24 09:01:00,
2013-10-24 05:06:00,34.9,33.0,28.95,South,180,5.0,8.0,95,0.00,,,0.00,Rainwise IP-100,2013-10-24 09:06:00,
2013-10-24 05:11:00,34.9,33.0,28.95,SW,225,1.0,9.0,95,0.00,,,0.00,Rainwise IP-100,2013-10-24 09:11:00,
2013-10-24 05:16:00,34.8,33.0,28.95,South,180,2.0,7.0,95,0.00,,,0.00,Rainwise IP-100,2013-10-24 09:16:00,
2013-10-24 05:21:00,34.7,33.0,28.95,SSW,202,2.0,8.0,95,0.00,,,0.00,Rainwise IP-100,2013-10-24 09:21:00,
2013-10-24 05:26:00,34.6,33.0,28.95,South,180,2.0,6.0,95,0.00,,,0.00,Rainwise IP-100,2013-10-24 09:26:00,
2013-10-24 05:31:00,34.6,33.0,28.95,SW,225,2.0,7.0,95,0.00,,,0.00,Rainwise IP-100,2013-10-24 09:31:00,
2013-10-24 05:36:00,34.5,33.0,28.95,SSW,202,4.0,9.0,95,0.00,,,0.00,Rainwise IP-100,2013-10-24 09:36:00,
2013-10-24 05:41:00,34.7,33.0,28.95,South,180,6.0,9.0,95,0.00,,,0.00,Rainwise IP-100,2013-10-24 09:41:00,
2013-10-24 05:46:00,34.9,33.0,28.95,SW,225,5.0,11.0,95,0.00,,,0.00,Rainwise IP-100,2013-10-24 09:46:00,
2013-10-24 05:51:00,34.7,33.0,28.95,SSW,202,2.0,9.0,95,0.00,,,0.00,Rainwise IP-100,2013-10-24 09:51:00,
2013-10-24 05:56:00,34.9,33.0,28.95,SW,225,5.0,9.0,95,0.00,,,0.00,Rainwise IP-100,2013-10-24 09:56:00,
2013-10-24 06:01:00,34.8,33.0,28.95,SSW,202,3.0,10.0,94,0.00,,,0.00,Rainwise IP-100,2013-10-24 10:01:00,
2013-10-24 06:06:00,34.9,33.0,28.95,SSW,202,2.0,11.0,94,0.00,,,0.00,Rainwise IP-100,2013-10-24 10:06:00,
2013-10-24 06:11:00,34.9,33.0,28.96,SSW,202,6.0,11.0,94,0.00,,,0.00,Rainwise IP-100,2013-10-24 10:11:00,
2013-10-24 06:16:00,34.9,33.0,28.95,SSW,202,4.0,11.0,94,0.00,,,0.00,Rainwise IP-100,2013-10-24 10:16:00,
2013-10-24 06:21:00,34.9,33.0,28.96,SW,225,2.0,13.0,94,0.00,,,0.00,Rainwise IP-100,2013-10-24 10:21:00,
2013-10-24 06:26:00,34.9,33.0,28.96,SSW,202,2.0,7.0,94,0.00,,,0.00,Rainwise IP-100,2013-10-24 10:26:00,
2013-10-24 06:31:00,34.8,33.0,28.96,South,180,4.0,10.0,94,0.00,,,0.00,Rainwise IP-100,2013-10-24 10:31:00,
2013-10-24 06:36:00,34.8,33.0,28.96,SSW,202,2.0,9.0,94,0.00,,,0.00,Rainwise IP-100,2013-10-24 10:36:00,
2013-10-24 06:41:00,34.7,33.0,28.97,SSW,202,2.0,8.0,94,0.00,,,0.00,Rainwise IP-100,2013-10-24 10:41:00,
2013-10-24 06:46:00,34.7,33.0,28.96,SSW,202,1.0,7.0,95,0.00,,,0.00,Rainwise IP-100,2013-10-24 10:46:00,
2013-10-24 06:51:00,34.6,33.0,28.97,SSW,202,7.0,9.0,95,0.00,,,0.00,Rainwise IP-100,2013-10-24 10:51:00,
2013-10-24 06:56:00,34.6,33.0,28.97,SSW,202,2.0,9.0,95,0.00,,,0.00,Rainwise IP-100,2013-10-24 10:56:00,
2013-10-24 07:01:00,34.7,33.0,28.97,SSW,202,2.0,9.0,94,0.00,,,0.00,Rainwise IP-100,2013-10-24 11:01:00,
2013-10-24 07:06:00,34.9,33.0,28.97,SSW,202,6.0,9.0,93,0.00,,,0.00,Rainwise IP-100,2013-10-24 11:06:00,
2013-10-24 07:11:00,34.9,33.0,28.97,SW,225,4.0,8.0,93,0.00,,,0.00,Rainwise IP-100,2013-10-24 11:11:00,
2013-10-24 07:16:00,34.9,32.0,28.97,SSW,202,4.0,8.0,92,0.00,,,0.00,Rainwise IP-100,2013-10-24 11:16:00,
2013-10-24 07:21:00,35.0,32.0,28.97,South,180,4.0,9.0,92,0.00,,,0.00,Rainwise IP-100,2013-10-24 11:21:00,
2013-10-24 07:26:00,35.0,32.0,28.97,SSW,202,4.0,8.0,92,0.00,,,0.00,Rainwise IP-100,2013-10-24 11:26:00,
2013-10-24 07:31:00,34.9,33.0,28.97,South,180,1.0,7.0,93,0.00,,,0.00,Rainwise IP-100,2013-10-24 11:31:00,
2013-10-24 07:36:00,34.9,33.0,28.97,SW,225,4.0,7.0,93,0.00,,,0.00,Rainwise IP-100,2013-10-24 11:36:00,
2013-10-24 07:41:00,34.8,33.0,28.98,SSW,202,2.0,5.0,93,0.00,,,0.00,Rainwise IP-100,2013-10-24 11:41:00,
2013-10-24 07:46:00,34.9,33.0,28.97,SSW,202,1.0,7.0,94,0.00,,,0.00,Rainwise IP-100,2013-10-24 11:46:00,
2013-10-24 07:51:00,35.1,33.0,28.98,South,180,1.0,6.0,94,0.00,,,0.00,Rainwise IP-100,2013-10-24 11:51:00,
2013-10-24 07:56:00,35.3,33.0,28.98,SW,225,4.0,7.0,95,0.00,,,0.00,Rainwise IP-100,2013-10-24 11:56:00,
2013-10-24 08:01:00,35.6,35.0,28.98,South,180,4.0,9.0,94,0.00,,,0.00,Rainwise IP-100,2013-10-24 12:01:00,
2013-10-24 08:06:00,35.9,35.0,28.98,South,180,4.0,7.0,93,0.00,,,0.00,Rainwise IP-100,2013-10-24 12:06:00,
2013-10-24 08:11:00,36.4,33.0,28.98,SW,225,5.0,7.0,92,0.00,,,0.00,Rainwise IP-100,2013-10-24 12:11:00,
2013-10-24 08:16:00,36.6,35.0,28.98,South,180,3.0,8.0,92,0.00,,,0.00,Rainwise IP-100,2013-10-24 12:16:00,
2013-10-24 08:21:00,36.6,35.0,28.99,SSW,202,4.0,7.0,93,0.00,,,0.00,Rainwise IP-100,2013-10-24 12:21:00,
2013-10-24 08:26:00,37.2,35.0,28.99,South,180,1.0,8.0,92,0.00,,,0.00,Rainwise IP-100,2013-10-24 12:26:00,
2013-10-24 08:31:00,37.6,36.0,28.99,SW,225,4.0,9.0,91,0.00,,,0.00,Rainwise IP-100,2013-10-24 12:31:00,
2013-10-24 08:36:00,37.9,36.0,28.99,SW,225,2.0,6.0,90,0.00,,,0.00,Rainwise IP-100,2013-10-24 12:36:00,
2013-10-24 08:41:00,38.5,37.0,29.00,SW,225,4.0,7.0,90,0.00,,,0.00,Rainwise IP-100,2013-10-24 12:41:00,
2013-10-24 08:46:00,38.9,36.0,29.00,SSW,202,3.0,9.0,89,0.00,,,0.00,Rainwise IP-100,2013-10-24 12:46:00,
2013-10-24 08:51:00,39.4,36.0,29.00,South,180,6.0,8.0,88,0.00,,,0.00,Rainwise IP-100,2013-10-24 12:51:00,
2013-10-24 08:56:00,39.7,37.0,29.01,SSW,202,4.0,12.0,87,0.00,,,0.00,Rainwise IP-100,2013-10-24 12:56:00,
2013-10-24 09:01:00,39.9,37.0,29.01,SSW,202,6.0,12.0,86,0.00,,,0.00,Rainwise IP-100,2013-10-24 13:01:00,
2013-10-24 09:06:00,40.4,36.0,29.01,SSW,202,7.0,11.0,85,0.00,,,0.00,Rainwise IP-100,2013-10-24 13:06:00,
2013-10-24 09:11:00,40.5,37.0,29.01,SSW,202,3.0,12.0,84,0.00,,,0.00,Rainwise IP-100,2013-10-24 13:11:00,
2013-10-24 09:16:00,40.9,37.0,29.01,WSW,247,4.0,13.0,83,0.00,,,0.00,Rainwise IP-100,2013-10-24 13:16:00,
2013-10-24 09:21:00,41.2,36.0,29.01,West,270,7.0,12.0,81,0.00,,,0.00,Rainwise IP-100,2013-10-24 13:21:00,
2013-10-24 09:26:00,41.6,36.0,29.02,SSW,202,4.0,12.0,79,0.00,,,0.00,Rainwise IP-100,2013-10-24 13:26:00,
2013-10-24 09:31:00,41.9,36.0,29.01,SW,225,7.0,14.0,78,0.00,,,0.00,Rainwise IP-100,2013-10-24 13:31:00,
2013-10-24 09:36:00,42.3,36.0,29.01,WSW,247,8.0,13.0,78,0.00,,,0.00,Rainwise IP-100,2013-10-24 13:36:00,
2013-10-24 09:41:00,42.6,36.0,29.02,SW,225,7.0,11.0,76,0.00,,,0.00,Rainwise IP-100,2013-10-24 13:41:00,
2013-10-24 09:47:00,42.9,36.0,29.02,SSW,202,8.0,12.0,76,0.00,,,0.00,Rainwise IP-100,2013-10-24 13:47:00,
2013-10-24 09:52:00,42.9,36.0,29.02,SW,225,7.0,17.0,75,0.00,,,0.00,Rainwise IP-100,2013-10-24 13:52:00,
2013-10-24 09:57:00,43.1,36.0,29.02,SW,225,12.0,18.0,74,0.00,,,0.00,Rainwise IP-100,2013-10-24 13:57:00,
2013-10-24 10:02:00,43.5,36.0,29.02,SSW,202,8.0,14.0,73,0.00,,,0.00,Rainwise IP-100,2013-10-24 14:02:00,
2013-10-24 10:07:00,43.4,35.0,29.02,SW,225,9.0,14.0,71,0.00,,,0.00,Rainwise IP-100,2013-10-24 14:07:00,
2013-10-24 10:12:00,43.3,35.0,29.02,SW,225,11.0,17.0,71,0.00,,,0.00,Rainwise IP-100,2013-10-24 14:12:00,
2013-10-24 10:17:00,43.4,35.0,29.02,West,270,5.0,14.0,72,0.00,,,0.00,Rainwise IP-100,2013-10-24 14:17:00,
2013-10-24 10:22:00,43.8,36.0,29.03,SW,225,5.0,16.0,71,0.00,,,0.00,Rainwise IP-100,2013-10-24 14:22:00,
2013-10-24 10:27:00,44.2,36.0,29.02,South,180,4.0,15.0,71,0.00,,,0.00,Rainwise IP-100,2013-10-24 14:27:00,
2013-10-24 10:32:00,44.4,35.0,29.02,West,270,12.0,16.0,70,0.00,,,0.00,Rainwise IP-100,2013-10-24 14:32:00,
2013-10-24 10:37:00,44.5,35.0,29.02,SW,225,4.0,16.0,68,0.00,,,0.00,Rainwise IP-100,2013-10-24 14:37:00,
2013-10-24 10:42:00,44.9,35.0,29.02,SW,225,8.0,17.0,66,0.00,,,0.00,Rainwise IP-100,2013-10-24 14:42:00,
2013-10-24 10:47:00,44.8,35.0,29.02,South,180,4.0,16.0,66,0.00,,,0.00,Rainwise IP-100,2013-10-24 14:47:00,
2013-10-24 10:52:00,45.4,35.0,29.03,SW,225,2.0,18.0,67,0.00,,,0.00,Rainwise IP-100,2013-10-24 14:52:00,
2013-10-24 10:57:00,46.1,35.0,29.03,WSW,247,4.0,16.0,64,0.00,,,0.00,Rainwise IP-100,2013-10-24 14:57:00,
2013-10-24 11:02:00,45.8,35.0,29.03,WNW,292,4.0,14.0,64,0.00,,,0.00,Rainwise IP-100,2013-10-24 15:02:00,
2013-10-24 11:07:00,46.6,35.0,29.03,SW,225,9.0,16.0,64,0.00,,,0.00,Rainwise IP-100,2013-10-24 15:07:00,
2013-10-24 11:12:00,46.8,35.0,29.03,WNW,292,6.0,14.0,62,0.00,,,0.00,Rainwise IP-100,2013-10-24 15:12:00,
2013-10-24 11:17:00,46.8,35.0,29.03,SSW,202,8.0,14.0,63,0.00,,,0.00,Rainwise IP-100,2013-10-24 15:17:00,
2013-10-24 11:22:00,46.9,35.0,29.03,South,180,2.0,18.0,64,0.00,,,0.00,Rainwise IP-100,2013-10-24 15:22:00,
2013-10-24 11:27:00,46.8,35.0,29.03,WSW,247,7.0,18.0,62,0.00,,,0.00,Rainwise IP-100,2013-10-24 15:27:00,
2013-10-24 11:32:00,46.7,33.0,29.03,South,180,9.0,17.0,59,0.00,,,0.00,Rainwise IP-100,2013-10-24 15:32:00,
2013-10-24 11:37:00,46.8,35.0,29.03,West,270,7.0,18.0,61,0.00,,,0.00,Rainwise IP-100,2013-10-24 15:37:00,
2013-10-24 11:42:00,47.0,33.0,29.03,SW,225,7.0,16.0,60,0.00,,,0.00,Rainwise IP-100,2013-10-24 15:42:00,
2013-10-24 11:47:00,47.2,35.0,29.03,SSW,202,4.0,14.0,61,0.00,,,0.00,Rainwise IP-100,2013-10-24 15:47:00,
2013-10-24 11:52:00,46.9,33.0,29.03,SW,225,9.0,13.0,59,0.00,,,0.00,Rainwise IP-100,2013-10-24 15:52:00,
2013-10-24 11:57:00,46.9,33.0,29.03,West,270,5.0,15.0,60,0.00,,,0.00,Rainwise IP-100,2013-10-24 15:57:00,
2013-10-24 12:02:00,46.9,33.0,29.03,SW,225,6.0,17.0,60,0.00,,,0.00,Rainwise IP-100,2013-10-24 16:02:00,
2013-10-24 12:07:00,46.6,33.0,29.03,SW,225,2.0,17.0,58,0.00,,,0.00,Rainwise IP-100,2013-10-24 16:07:00,
2013-10-24 12:12:00,47.3,35.0,29.03,North,360,10.0,15.0,62,0.00,,,0.00,Rainwise IP-100,2013-10-24 16:12:00,
2013-10-24 12:17:00,47.6,33.0,29.03,WSW,247,6.0,13.0,58,0.00,,,0.00,Rainwise IP-100,2013-10-24 16:17:00,
2013-10-24 12:22:00,47.7,35.0,29.03,SW,225,8.0,18.0,60,0.00,,,0.00,Rainwise IP-100,2013-10-24 16:22:00,
2013-10-24 12:27:00,47.6,33.0,29.03,WSW,247,4.0,17.0,58,0.00,,,0.00,Rainwise IP-100,2013-10-24 16:27:00,
2013-10-24 12:32:00,48.1,33.0,29.03,WSW,247,7.0,13.0,56,0.00,,,0.00,Rainwise IP-100,2013-10-24 16:32:00,
2013-10-24 12:37:00,47.9,33.0,29.03,South,180,4.0,19.0,56,0.00,,,0.00,Rainwise IP-100,2013-10-24 16:37:00,
2013-10-24 12:42:00,46.9,33.0,29.03,SW,225,9.0,19.0,58,0.00,,,0.00,Rainwise IP-100,2013-10-24 16:42:00,
2013-10-24 12:47:00,46.9,33.0,29.03,SW,225,3.0,15.0,59,0.00,,,0.00,Rainwise IP-100,2013-10-24 16:47:00,
2013-10-24 12:52:00,46.7,33.0,29.03,SW,225,9.0,21.0,58,0.00,,,0.00,Rainwise IP-100,2013-10-24 16:52:00,
2013-10-24 12:57:00,47.5,33.0,29.03,WSW,247,16.0,16.0,57,0.00,,,0.00,Rainwise IP-100,2013-10-24 16:57:00,
2013-10-24 13:02:00,47.2,33.0,29.02,WSW,247,2.0,17.0,58,0.00,,,0.00,Rainwise IP-100,2013-10-24 17:02:00,
2013-10-24 13:07:00,46.8,33.0,29.02,SW,225,11.0,16.0,58,0.00,,,0.00,Rainwise IP-100,2013-10-24 17:07:00,
2013-10-24 13:12:00,47.0,33.0,29.03,WSW,247,5.0,15.0,60,0.00,,,0.00,Rainwise IP-100,2013-10-24 17:12:00,
2013-10-24 13:17:00,47.4,33.0,29.02,WSW,247,13.0,18.0,57,0.00,,,0.00,Rainwise IP-100,2013-10-24 17:17:00,
2013-10-24 13:22:00,47.2,33.0,29.02,SW,225,6.0,16.0,58,0.00,,,0.00,Rainwise IP-100,2013-10-24 17:22:00,
2013-10-24 13:27:00,46.9,33.0,29.02,SW,225,12.0,14.0,59,0.00,,,0.00,Rainwise IP-100,2013-10-24 17:27:00,
2013-10-24 13:32:00,47.5,35.0,29.02,WSW,247,4.0,14.0,60,0.00,,,0.00,Rainwise IP-100,2013-10-24 17:32:00,
2013-10-24 13:37:00,47.2,33.0,29.01,SSW,202,2.0,14.0,58,0.00,,,0.00,Rainwise IP-100,2013-10-24 17:37:00,
2013-10-24 13:42:00,47.7,33.0,29.01,SW,225,8.0,14.0,59,0.00,,,0.00,Rainwise IP-100,2013-10-24 17:42:00,
2013-10-24 13:47:00,48.5,36.0,29.01,SW,225,2.0,15.0,60,0.00,,,0.00,Rainwise IP-100,2013-10-24 17:47:00,
2013-10-24 13:52:00,48.0,33.0,29.02,SW,225,6.0,13.0,55,0.00,,,0.00,Rainwise IP-100,2013-10-24 17:52:00,
2013-10-24 13:57:00,48.1,33.0,29.02,SW,225,6.0,22.0,57,0.00,,,0.00,Rainwise IP-100,2013-10-24 17:57:00,
2013-10-24 14:02:00,48.5,33.0,29.02,SSW,202,7.0,19.0,54,0.00,,,0.00,Rainwise IP-100,2013-10-24 18:02:00,
2013-10-24 14:07:00,47.8,32.0,29.01,SW,225,1.0,16.0,56,0.00,,,0.00,Rainwise IP-100,2013-10-24 18:07:00,
2013-10-24 14:12:00,48.8,33.0,29.01,South,180,7.0,17.0,54,0.00,,,0.00,Rainwise IP-100,2013-10-24 18:12:00,
2013-10-24 14:17:00,48.7,33.0,29.02,WSW,247,8.0,21.0,53,0.00,,,0.00,Rainwise IP-100,2013-10-24 18:17:00,
2013-10-24 14:22:00,48.2,32.0,29.02,SW,225,14.0,17.0,53,0.00,,,0.00,Rainwise IP-100,2013-10-24 18:22:00,
2013-10-24 14:27:00,47.9,33.0,29.02,WSW,247,1.0,19.0,55,0.00,,,0.00,Rainwise IP-100,2013-10-24 18:27:00,
2013-10-24 14:32:00,47.9,33.0,29.02,SW,225,3.0,11.0,56,0.00,,,0.00,Rainwise IP-100,2013-10-24 18:32:00,
2013-10-24 14:37:00,47.8,31.0,29.02,WSW,247,6.0,16.0,53,0.00,,,0.00,Rainwise IP-100,2013-10-24 18:37:00,
2013-10-24 14:42:00,48.7,32.0,29.01,WSW,247,14.0,16.0,52,0.00,,,0.00,Rainwise IP-100,2013-10-24 18:42:00,
2013-10-24 14:47:00,48.7,32.0,29.02,SSW,202,13.0,17.0,51,0.00,,,0.00,Rainwise IP-100,2013-10-24 18:47:00,
2013-10-24 14:52:00,49.2,32.0,29.02,SW,225,3.0,18.0,52,0.00,,,0.00,Rainwise IP-100,2013-10-24 18:52:00,
2013-10-24 14:57:00,49.5,32.0,29.02,WNW,292,3.0,19.0,51,0.00,,,0.00,Rainwise IP-100,2013-10-24 18:57:00,
2013-10-24 15:02:00,49.0,32.0,29.02,WSW,247,9.0,17.0,52,0.00,,,0.00,Rainwise IP-100,2013-10-24 19:02:00,
2013-10-24 15:07:00,48.9,32.0,29.02,West,270,6.0,17.0,51,0.00,,,0.00,Rainwise IP-100,2013-10-24 19:07:00,
2013-10-24 15:12:00,49.5,32.0,29.02,WSW,247,8.0,18.0,51,0.00,,,0.00,Rainwise IP-100,2013-10-24 19:12:00,
2013-10-24 15:17:00,49.1,32.0,29.03,WSW,247,9.0,14.0,51,0.00,,,0.00,Rainwise IP-100,2013-10-24 19:17:00,
2013-10-24 15:22:00,48.2,32.0,29.02,SW,225,7.0,16.0,53,0.00,,,0.00,Rainwise IP-100,2013-10-24 19:22:00,
2013-10-24 15:27:00,48.7,33.0,29.02,SSW,202,6.0,12.0,53,0.00,,,0.00,Rainwise IP-100,2013-10-24 19:27:00,
2013-10-24 15:32:00,48.8,32.0,29.02,SW,225,11.0,16.0,51,0.00,,,0.00,Rainwise IP-100,2013-10-24 19:32:00,
2013-10-24 15:37:00,49.2,32.0,29.03,SSW,202,8.0,15.0,51,0.00,,,0.00,Rainwise IP-100,2013-10-24 19:37:00,
2013-10-24 15:42:00,49.4,32.0,29.03,SW,225,5.0,16.0,51,0.00,,,0.00,Rainwise IP-100,2013-10-24 19:42:00,
2013-10-24 15:47:00,49.3,32.0,29.03,SW,225,3.0,22.0,50,0.00,,,0.00,Rainwise IP-100,2013-10-24 19:47:00,
2013-10-24 15:52:00,49.4,31.0,29.03,SW,225,5.0,17.0,48,0.00,,,0.00,Rainwise IP-100,2013-10-24 19:52:00,
2013-10-24 15:57:00,48.5,31.0,29.03,WSW,247,4.0,15.0,49,0.00,,,0.00,Rainwise IP-100,2013-10-24 19:57:00,
2013-10-24 16:02:00,48.1,31.0,29.03,SW,225,8.0,12.0,51,0.00,,,0.00,Rainwise IP-100,2013-10-24 20:02:00,
2013-10-24 16:07:00,47.8,29.0,29.03,SSW,202,6.0,17.0,49,0.00,,,0.00,Rainwise IP-100,2013-10-24 20:07:00,
2013-10-24 16:12:00,47.8,31.0,29.04,SW,225,4.0,17.0,50,0.00,,,0.00,Rainwise IP-100,2013-10-24 20:12:00,
2013-10-24 16:17:00,48.5,31.0,29.03,WSW,247,4.0,15.0,49,0.00,,,0.00,Rainwise IP-100,2013-10-24 20:17:00,
2013-10-24 16:22:00,48.5,32.0,29.03,WSW,247,7.0,15.0,50,0.00,,,0.00,Rainwise IP-100,2013-10-24 20:22:00,
2013-10-24 16:27:00,49.0,31.0,29.04,SW,225,6.0,14.0,49,0.00,,,0.00,Rainwise IP-100,2013-10-24 20:27:00,
2013-10-24 16:32:00,48.2,31.0,29.04,SW,225,12.0,17.0,49,0.00,,,0.00,Rainwise IP-100,2013-10-24 20:32:00,
2013-10-24 16:37:00,47.9,31.0,29.05,SW,225,1.0,14.0,50,0.00,,,0.00,Rainwise IP-100,2013-10-24 20:37:00,
2013-10-24 16:42:00,47.9,31.0,29.05,West,270,2.0,19.0,51,0.00,,,0.00,Rainwise IP-100,2013-10-24 20:42:00,
2013-10-24 16:47:00,47.9,31.0,29.05,WNW,292,6.0,16.0,50,0.00,,,0.00,Rainwise IP-100,2013-10-24 20:47:00,
2013-10-24 16:52:00,47.9,32.0,29.05,West,270,2.0,11.0,52,0.00,,,0.00,Rainwise IP-100,2013-10-24 20:52:00,
2013-10-24 16:57:00,47.8,31.0,29.05,SSW,202,1.0,12.0,52,0.00,,,0.00,Rainwise IP-100,2013-10-24 20:57:00,
2013-10-24 17:02:00,47.5,31.0,29.05,WSW,247,7.0,13.0,52,0.00,,,0.00,Rainwise IP-100,2013-10-24 21:02:00,
2013-10-24 17:07:00,47.2,31.0,29.05,WSW,247,2.0,16.0,53,0.00,,,0.00,Rainwise IP-100,2013-10-24 21:07:00,
2013-10-24 17:12:00,46.9,31.0,29.05,WSW,247,9.0,17.0,54,0.00,,,0.00,Rainwise IP-100,2013-10-24 21:12:00,
2013-10-24 17:17:00,46.8,31.0,29.05,SSW,202,9.0,18.0,53,0.00,,,0.00,Rainwise IP-100,2013-10-24 21:17:00,
2013-10-24 17:22:00,46.3,32.0,29.05,SSW,202,9.0,15.0,57,0.00,,,0.00,Rainwise IP-100,2013-10-24 21:22:00,
2013-10-24 17:27:00,45.9,32.0,29.06,SSW,202,7.0,17.0,58,0.00,,,0.00,Rainwise IP-100,2013-10-24 21:27:00,
2013-10-24 17:32:00,45.4,32.0,29.05,West,270,3.0,14.0,61,0.00,,,0.00,Rainwise IP-100,2013-10-24 21:32:00,
2013-10-24 17:37:00,45.1,33.0,29.06,WSW,247,6.0,13.0,63,0.00,,,0.00,Rainwise IP-100,2013-10-24 21:37:00,
2013-10-24 17:42:00,45.2,33.0,29.06,WSW,247,4.0,9.0,62,0.00,,,0.00,Rainwise IP-100,2013-10-24 21:42:00,
2013-10-24 17:47:00,45.3,32.0,29.06,SSW,202,3.0,14.0,60,0.00,,,0.00,Rainwise IP-100,2013-10-24 21:47:00,
2013-10-24 17:52:00,45.3,32.0,29.06,SW,225,2.0,11.0,61,0.00,,,0.00,Rainwise IP-100,2013-10-24 21:52:00,
2013-10-24 17:57:00,45.0,32.0,29.06,SW,225,5.0,11.0,61,0.00,,,0.00,Rainwise IP-100,2013-10-24 21:57:00,
2013-10-24 18:02:00,44.8,32.0,29.06,SW,225,3.0,13.0,61,0.00,,,0.00,Rainwise IP-100,2013-10-24 22:02:00,
2013-10-24 18:07:00,44.6,32.0,29.06,WSW,247,6.0,16.0,61,0.00,,,0.00,Rainwise IP-100,2013-10-24 22:07:00,
2013-10-24 18:12:00,44.4,32.0,29.06,SW,225,3.0,14.0,62,0.00,,,0.00,Rainwise IP-100,2013-10-24 22:12:00,
2013-10-24 18:17:00,44.2,32.0,29.07,WSW,247,6.0,11.0,63,0.00,,,0.00,Rainwise IP-100,2013-10-24 22:17:00,
2013-10-24 18:22:00,43.9,33.0,29.07,SW,225,2.0,12.0,64,0.00,,,0.00,Rainwise IP-100,2013-10-24 22:22:00,
2013-10-24 18:27:00,43.9,33.0,29.07,SW,225,2.0,11.0,64,0.00,,,0.00,Rainwise IP-100,2013-10-24 22:27:00,
2013-10-24 18:32:00,44.0,33.0,29.07,SW,225,6.0,14.0,64,0.00,,,0.00,Rainwise IP-100,2013-10-24 22:32:00,
2013-10-24 18:37:00,43.8,33.0,29.07,SW,225,4.0,12.0,65,0.00,,,0.00,Rainwise IP-100,2013-10-24 22:37:00,
2013-10-24 18:42:00,43.6,33.0,29.07,SSW,202,12.0,12.0,66,0.00,,,0.00,Rainwise IP-100,2013-10-24 22:42:00,
2013-10-24 18:47:00,43.5,33.0,29.07,SW,225,3.0,14.0,66,0.00,,,0.00,Rainwise IP-100,2013-10-24 22:47:00,
2013-10-24 18:52:00,43.3,33.0,29.08,SW,225,7.0,15.0,67,0.00,,,0.00,Rainwise IP-100,2013-10-24 22:52:00,
2013-10-24 18:57:00,43.2,33.0,29.08,SW,225,4.0,9.0,68,0.00,,,0.00,Rainwise IP-100,2013-10-24 22:57:00,
2013-10-24 19:02:00,43.3,33.0,29.08,SW,225,4.0,12.0,68,0.00,,,0.00,Rainwise IP-100,2013-10-24 23:02:00,
2013-10-24 19:07:00,43.2,33.0,29.09,WSW,247,6.0,14.0,69,0.00,,,0.00,Rainwise IP-100,2013-10-24 23:07:00,
2013-10-24 19:12:00,43.2,35.0,29.09,SSW,202,6.0,10.0,70,0.00,,,0.00,Rainwise IP-100,2013-10-24 23:12:00,
2013-10-24 19:17:00,43.1,35.0,29.09,SW,225,7.0,11.0,71,0.00,,,0.00,Rainwise IP-100,2013-10-24 23:17:00,
2013-10-24 19:22:00,43.2,35.0,29.09,SW,225,7.0,14.0,71,0.00,,,0.00,Rainwise IP-100,2013-10-24 23:22:00,
2013-10-24 19:27:00,42.9,35.0,29.09,SW,225,3.0,11.0,72,0.00,,,0.00,Rainwise IP-100,2013-10-24 23:27:00,
2013-10-24 19:32:00,42.5,35.0,29.09,West,270,1.0,11.0,73,0.00,,,0.00,Rainwise IP-100,2013-10-24 23:32:00,
2013-10-24 19:37:00,42.4,35.0,29.10,WSW,247,2.0,11.0,74,0.00,,,0.00,Rainwise IP-100,2013-10-24 23:37:00,
2013-10-24 19:42:00,42.3,35.0,29.10,South,180,4.0,11.0,74,0.00,,,0.00,Rainwise IP-100,2013-10-24 23:42:00,
2013-10-24 19:47:00,42.7,36.0,29.10,SSW,202,3.0,12.0,74,0.00,,,0.00,Rainwise IP-100,2013-10-24 23:47:00,
2013-10-24 19:52:00,42.6,36.0,29.10,WSW,247,6.0,7.0,75,0.00,,,0.00,Rainwise IP-100,2013-10-24 23:52:00,
2013-10-24 19:57:00,42.5,36.0,29.10,WSW,247,6.0,8.0,75,0.00,,,0.00,Rainwise IP-100,2013-10-24 23:57:00,
2013-10-24 20:02:00,42.5,36.0,29.10,SW,225,1.0,7.0,75,0.00,,,0.00,Rainwise IP-100,2013-10-25 00:02:00,
2013-10-24 20:07:00,42.6,36.0,29.10,SW,225,2.0,9.0,75,0.00,,,0.00,Rainwise IP-100,2013-10-25 00:07:00,
2013-10-24 20:12:00,42.8,36.0,29.10,WSW,247,6.0,14.0,75,0.00,,,0.00,Rainwise IP-100,2013-10-25 00:12:00,
2013-10-24 20:17:00,42.9,36.0,29.10,SW,225,4.0,9.0,75,0.00,,,0.00,Rainwise IP-100,2013-10-25 00:17:00,
2013-10-24 20:22:00,42.8,36.0,29.10,SW,225,6.0,10.0,75,0.00,,,0.00,Rainwise IP-100,2013-10-25 00:22:00,
2013-10-24 20:27:00,42.7,36.0,29.10,SW,225,3.0,11.0,75,0.00,,,0.00,Rainwise IP-100,2013-10-25 00:27:00,
2013-10-24 20:32:00,42.6,36.0,29.10,SW,225,3.0,11.0,75,0.00,,,0.00,Rainwise IP-100,2013-10-25 00:32:00,
2013-10-24 20:37:00,42.6,36.0,29.10,South,180,2.0,13.0,75,0.00,,,0.00,Rainwise IP-100,2013-10-25 00:37:00,
2013-10-24 20:42:00,42.5,36.0,29.10,SW,225,7.0,12.0,76,0.00,,,0.00,Rainwise IP-100,2013-10-25 00:42:00,
2013-10-24 20:47:00,42.7,36.0,29.10,SW,225,5.0,10.0,76,0.00,,,0.00,Rainwise IP-100,2013-10-25 00:47:00,
2013-10-24 20:52:00,42.7,36.0,29.10,West,270,5.0,10.0,75,0.00,,,0.00,Rainwise IP-100,2013-10-25 00:52:00,
2013-10-24 20:57:00,42.7,36.0,29.11,WSW,247,2.0,9.0,76,0.00,,,0.00,Rainwise IP-100,2013-10-25 00:57:00,
2013-10-24 21:02:00,42.7,36.0,29.11,SSW,202,1.0,12.0,76,0.00,,,0.00,Rainwise IP-100,2013-10-25 01:02:00,
2013-10-24 21:07:00,42.8,36.0,29.11,SW,225,2.0,9.0,76,0.00,,,0.00,Rainwise IP-100,2013-10-25 01:07:00,
2013-10-24 21:12:00,42.9,36.0,29.11,WNW,292,2.0,11.0,76,0.00,,,0.00,Rainwise IP-100,2013-10-25 01:12:00,
2013-10-24 21:17:00,42.8,36.0,29.11,WNW,292,7.0,11.0,76,0.00,,,0.00,Rainwise IP-100,2013-10-25 01:17:00,
2013-10-24 21:22:00,42.7,37.0,29.12,WSW,247,4.0,7.0,78,0.00,,,0.00,Rainwise IP-100,2013-10-25 01:22:00,
2013-10-24 21:27:00,42.6,37.0,29.12,WNW,292,4.0,10.0,78,0.00,,,0.00,Rainwise IP-100,2013-10-25 01:27:00,
2013-10-24 21:32:00,42.4,37.0,29.11,West,270,9.0,11.0,80,0.00,,,0.00,Rainwise IP-100,2013-10-25 01:32:00,
2013-10-24 21:37:00,42.2,37.0,29.12,WSW,247,6.0,15.0,81,0.00,,,0.00,Rainwise IP-100,2013-10-25 01:37:00,
2013-10-24 21:42:00,41.8,37.0,29.12,WSW,247,5.0,11.0,82,0.00,,,0.00,Rainwise IP-100,2013-10-25 01:42:00,
2013-10-24 21:47:00,41.7,37.0,29.12,West,270,10.0,13.0,83,0.00,,,0.00,Rainwise IP-100,2013-10-25 01:47:00,
2013-10-24 21:52:00,41.5,38.0,29.12,WSW,247,7.0,12.0,84,0.00,,,0.00,Rainwise IP-100,2013-10-25 01:52:00,
2013-10-24 21:58:00,40.9,37.0,29.13,West,270,8.0,15.0,86,0.00,,,0.00,Rainwise IP-100,2013-10-25 01:58:00,
2013-10-24 22:03:00,40.7,38.0,29.13,WSW,247,5.0,13.0,88,0.00,,,0.00,Rainwise IP-100,2013-10-25 02:03:00,
2013-10-24 22:08:00,40.1,37.0,29.13,WSW,247,3.0,8.0,89,0.00,,,0.00,Rainwise IP-100,2013-10-25 02:08:00,
2013-10-24 22:13:00,39.6,38.0,29.13,SW,225,4.0,9.0,90,0.00,,,0.00,Rainwise IP-100,2013-10-25 02:13:00,
2013-10-24 22:18:00,39.2,37.0,29.13,West,270,2.0,7.0,91,0.00,,,0.00,Rainwise IP-100,2013-10-25 02:18:00,
2013-10-24 22:23:00,39.1,37.0,29.12,WNW,292,4.0,9.0,92,0.00,,,0.00,Rainwise IP-100,2013-10-25 02:23:00,
2013-10-24 22:28:00,38.9,37.0,29.13,NW,315,2.0,7.0,92,0.00,,,0.00,Rainwise IP-100,2013-10-25 02:28:00,
2013-10-24 22:33:00,38.8,37.0,29.13,West,270,7.0,7.0,93,0.00,,,0.00,Rainwise IP-100,2013-10-25 02:33:00,
2013-10-24 22:38:00,38.8,37.0,29.13,WSW,247,5.0,7.0,92,0.00,,,0.00,Rainwise IP-100,2013-10-25 02:38:00,
2013-10-24 22:43:00,38.9,37.0,29.13,WSW,247,4.0,8.0,92,0.00,,,0.00,Rainwise IP-100,2013-10-25 02:43:00,
2013-10-24 22:48:00,38.9,37.0,29.13,West,270,1.0,11.0,92,0.00,,,0.00,Rainwise IP-100,2013-10-25 02:48:00,
2013-10-24 22:53:00,39.3,37.0,29.13,West,270,6.0,10.0,91,0.00,,,0.00,Rainwise IP-100,2013-10-25 02:53:00,
2013-10-24 22:58:00,39.4,37.0,29.13,NW,315,2.0,9.0,91,0.00,,,0.00,Rainwise IP-100,2013-10-25 02:58:00,
2013-10-24 23:03:00,39.6,38.0,29.13,WSW,247,6.0,9.0,91,0.00,,,0.00,Rainwise IP-100,2013-10-25 03:03:00,
2013-10-24 23:08:00,39.9,38.0,29.13,WNW,292,6.0,12.0,91,0.00,,,0.00,Rainwise IP-100,2013-10-25 03:08:00,
2013-10-24 23:13:00,40.4,38.0,29.14,WSW,247,3.0,14.0,90,0.00,,,0.00,Rainwise IP-100,2013-10-25 03:13:00,
2013-10-24 23:18:00,40.5,38.0,29.14,West,270,4.0,11.0,89,0.00,,,0.00,Rainwise IP-100,2013-10-25 03:18:00,
2013-10-24 23:23:00,40.6,38.0,29.14,WSW,247,2.0,9.0,89,0.00,,,0.00,Rainwise IP-100,2013-10-25 03:23:00,
2013-10-24 23:28:00,40.7,38.0,29.14,WSW,247,3.0,11.0,88,0.00,,,0.00,Rainwise IP-100,2013-10-25 03:28:00,
2013-10-24 23:33:00,40.8,38.0,29.14,SW,225,4.0,9.0,88,0.00,,,0.00,Rainwise IP-100,2013-10-25 03:33:00,
2013-10-24 23:38:00,40.8,38.0,29.14,WSW,247,2.0,9.0,87,0.00,,,0.00,Rainwise IP-100,2013-10-25 03:38:00,
2013-10-24 23:43:00,40.9,37.0,29.15,WNW,292,2.0,10.0,86,0.00,,,0.00,Rainwise IP-100,2013-10-25 03:43:00,
2013-10-24 23:48:00,40.9,37.0,29.15,WSW,247,6.0,10.0,86,0.00,,,0.00,Rainwise IP-100,2013-10-25 03:48:00,
2013-10-24 23:53:00,40.9,37.0,29.15,SW,225,3.0,9.0,86,0.00,,,0.00,Rainwise IP-100,2013-10-25 03:53:00,
2013-10-24 23:58:00,40.9,37.0,29.15,WSW,247,4.0,8.0,86,0.00,,,0.00,Rainwise IP-100,2013-10-25 03:58:00,